EW5860 Weather Reports


time (UTC)temp
C
wind
direction
speed
KPH
gust
KPH
rain 1hr
cm
rain 24hr
cm
rain mn
cm
humidity
%
barometer
mb
20260507051513 10 110 0.0 1.6 0.79 1.40 0.84 93 1010.4
20260507050011 11 315 0.0 3.2 0.71 1.27 0.71 92 1010.3
20260507044508 11 240 0.0 3.2 0.36 0.91 0.36 91 1010.4
20260507043007 11 202 0.0 4.8 0.18 0.71 0.18 89 1010.0
20260507041607 12 323 0.0 4.8 0.05 0.61 0.05 87 1009.7
20260507040105 12 321 0.0 3.2 0.00 0.56 0.00 86 1009.8
20260507034600 13 19 0.0 4.8 0.00 0.56 0.56 85 1009.7
20260507033053 13 251 0.0 16.1 0.00 0.56 0.56 86 1009.9
20260507031549 14 65 0.0 12.9 0.00 0.56 0.56 88 1009.3
20260507030053 14 306 0.0 6.4 0.00 0.56 0.56 87 1009.4
20260507024546 15 321 1.6 12.9 0.00 0.56 0.56 86 1009.1
20260507023041 15 34 3.2 12.9 0.00 0.56 0.56 87 1008.9
20260507021544 16 145 0.0 6.4 0.00 0.56 0.56 88 1009.0
20260507020040 16 345 1.6 6.4 0.00 0.56 0.56 87 1009.0
20260507014540 17 277 3.2 11.3 0.00 0.56 0.56 87 1008.9
20260507013040 17 248 1.6 6.4 0.00 0.56 0.56 89 1008.6
20260507011541 17 232 3.2 16.1 0.00 0.56 0.56 90 1008.8
20260507010138 17 246 1.6 4.8 0.00 0.56 0.56 91 1008.5
20260507004537 17 271 0.0 1.6 0.00 0.56 0.56 93 1008.5
20260507003037 17 273 0.0 1.6 0.00 0.56 0.56 92 1007.9
20260507001548 17 273 0.0 3.2 0.00 0.56 0.56 90 1007.6
20260507000039 18 273 0.0 4.8 0.00 0.56 0.56 89 1007.4
20260506234543 18 194 0.0 3.2 0.00 0.56 0.56 88 1007.2
20260506233035 18 264 0.0 8.0 0.00 0.56 0.56 87 1007.2
20260506231537 18 175 3.2 11.3 0.00 0.56 0.56 86 1007.0
20260506230034 18 211 4.8 11.3 0.00 0.56 0.56 86 1007.0
20260506224534 18 235 4.8 12.9 0.00 0.56 0.56 85 1007.2
20260506223035 19 194 1.6 12.9 0.00 0.56 0.56 85 1006.9
20260506221532 19 223 3.2 8.0 0.00 0.56 0.56 84 1006.9
20260506220032 19 171 1.6 4.8 0.00 0.56 0.56 84 1006.8
20260506214531 19 206 3.2 6.4 0.00 0.56 0.56 83 1007.1
20260506213033 20 142 3.2 11.3 0.00 0.56 0.56 82 1006.7
20260506211530 18 209 4.8 9.7 0.00 0.56 0.56 86 1006.6
20260506210030 18 198 1.6 6.4 0.00 0.56 0.56 88 1006.5
20260506204533 18 200 1.6 9.7 0.00 0.56 0.56 89 1006.6
20260506203038 17 261 1.6 4.8 0.00 0.56 0.56 88 1006.6
20260506201528 18 240 4.8 11.3 0.00 0.56 0.56 87 1006.5
20260506200031 18 191 4.8 14.5 0.00 0.56 0.56 87 1006.5
20260506194526 17 192 3.2 14.5 0.00 0.56 0.56 89 1006.6
20260506193026 17 209 6.4 20.9 0.00 0.56 0.56 89 1006.6
20260506191524 17 136 4.8 16.1 0.05 0.56 0.56 92 1006.7
20260506190032 16 208 8.0 25.7 0.05 0.56 0.56 93 1006.8
20260506184522 16 187 6.4 16.1 0.05 0.56 0.56 94 1007.0
20260506183020 16 190 9.7 27.4 0.05 0.56 0.56 94 1007.4
20260506181518 16 242 6.4 29.0 0.00 0.51 0.51 92 1007.5
20260506180018 16 178 9.7 25.7 0.00 0.51 0.51 90 1007.5
20260506174518 16 224 6.4 19.3 0.00 0.51 0.51 90 1007.7
20260506173016 16 128 8.0 24.1 0.00 0.51 0.51 90 1007.5
20260506171516 16 199 9.7 29.0 0.03 0.51 0.51 91 1007.4
20260506170014 16 223 9.7 22.5 0.03 0.51 0.51 91 1007.8
20260506164514 16 213 9.7 29.0 0.05 0.51 0.51 92 1007.7
20260506163022 16 175 6.4 17.7 0.08 0.51 0.51 93 1007.5
20260506161512 15 148 6.4 19.3 0.15 0.48 0.48 93 1007.3
20260506160008 15 225 8.0 20.9 0.20 0.48 0.48 92 1007.9
20260506154522 15 218 4.8 20.9 0.23 0.46 0.46 93 1008.6
20260506153003 15 194 4.8 12.9 0.23 0.43 0.43 92 1008.6
20260506151600 16 280 4.8 16.1 0.23 0.36 0.36 92 1008.9
20260506150058 16 217 6.4 16.1 0.23 0.28 0.28 91 1008.6
20260506144557 16 219 6.4 12.9 0.20 0.23 0.23 91 1008.8
20260506143057 16 206 3.2 17.7 0.20 0.20 0.20 90 1008.6
20260506141554 16 234 1.6 16.1 0.13 0.13 0.13 88 1008.6
20260506140051 16 167 3.2 16.1 0.05 0.05 0.05 87 1008.6
20260506134550 17 202 8.0 22.5 0.03 0.03 0.03 85 1008.5
20260506133050 17 213 4.8 12.9 0.00 0.00 0.00 84 1008.5
20260506131547 17 267 3.2 14.5 0.00 0.00 0.00 84 1008.8
20260506130047 17 229 8.0 17.7 0.00 0.00 0.00 82 1008.8
20260506124546 17 198 12.9 27.4 0.00 0.00 0.00 80 1008.9
20260506123041 18 233 11.3 25.7 0.00 0.00 0.00 78 1008.7
20260506121547 18 175 14.5 27.4 0.00 0.00 0.00 77 1008.6
20260506120041 18 166 14.5 30.6 0.00 0.00 0.00 76 1008.3
20260506114541 18 232 12.9 29.0 0.00 0.00 0.00 77 1008.2
20260506113038 18 214 9.7 25.7 0.00 0.00 0.00 77 1008.1
20260506111536 18 203 9.7 27.4 0.00 0.00 0.00 76 1008.0
20260506110037 18 209 12.9 35.4 0.00 0.00 0.00 76 1008.1
20260506104534 18 222 11.3 33.8 0.00 0.00 0.00 76 1007.7
20260506103031 18 213 9.7 37.0 0.00 0.00 0.00 75 1007.6
20260506101530 18 218 14.5 30.6 0.00 0.00 0.00 75 1007.8
20260506100030 18 229 14.5 22.5 0.00 0.00 0.00 74 1007.7
20260506094523 18 254 11.3 35.4 0.00 0.00 0.00 74 1007.8
20260506093022 18 229 11.3 33.8 0.00 0.00 0.00 74 1007.8
20260506091520 18 194 12.9 24.1 0.00 0.00 0.00 74 1007.7
20260506090016 18 212 12.9 24.1 0.00 0.00 0.00 73 1007.9
20260506084517 19 211 14.5 29.0 0.00 0.00 0.00 72 1008.0
20260506083016 19 167 12.9 30.6 0.00 0.00 0.00 71 1008.0
20260506081509 19 214 9.7 24.1 0.00 0.00 0.00 71 1008.0
20260506073006 19 196 9.7 19.3 0.00 0.00 0.00 68 1008.1
20260506071601 19 227 6.4 19.3 0.00 0.00 0.00 67 1008.2
20260506061552 20 212 9.7 29.0 0.00 0.00 0.00 62 1008.8